When you browse on this site, cookies collect data to enhance your experience and personalize the content and advertising you see.
Visit our Privacy Policy to learn more. By continuing to use the site, you agree to this use of cookies and data.
  • en Suisse
  • Liste des pays
  • À 7 jours
  • Température de l'eau
  • Carte satellitaire
  • Carte météo
  • Widgets météo
  • user-avatar
    Se connecter

    Météo par heure à Dzhalalabad

    Ce jour, 20 Janvier, Dimanche

    Heure Température Précipitation Vent Pression Humidité
    00:00 +7°C° 0 mm 1 m/s 692 mmHg 49%
    01:00 +6°C° 0 mm 1 m/s 692 mmHg 49%
    02:00 +6°C° 0 mm 1 m/s 692 mmHg 49%
    03:00 +6°C° 0 mm 1 m/s 692 mmHg 51%
    04:00 +5°C° 0 mm 1 m/s 692 mmHg 53%
    05:00 +5°C° 0 mm 1 m/s 691 mmHg 55%
    06:00 +5°C° 0 mm 1 m/s 691 mmHg 58%
    07:00 +4°C° 0 mm 1 m/s 691 mmHg 61%
    08:00 +4°C° 0 mm 1 m/s 691 mmHg 64%
    09:00 +5°C° 0 mm 1 m/s 690 mmHg 63%
    10:00 +5°C° 0 mm 1 m/s 690 mmHg 63%
    11:00 +6°C° 0 mm 1 m/s 689 mmHg 62%
    12:00 +7°C° 0 mm 1 m/s 689 mmHg 59%
    13:00 +6°C° 0 mm 2 m/s 689 mmHg 56%
    14:00 +7°C° 0 mm 2 m/s 689 mmHg 52%
    15:00 +6°C° 0 mm 2 m/s 689 mmHg 59%
    16:00 +5°C° 0 mm 2 m/s 689 mmHg 65%
    17:00 +3°C° 0 mm 3 m/s 690 mmHg 71%
    18:00 +3°C° 0 mm 2 m/s 690 mmHg 75%
    19:00 +3°C° 0 mm 2 m/s 691 mmHg 79%
    20:00 +3°C° 0 mm 1 m/s 692 mmHg 84%
    21:00 +3°C° 0.4 mm 1 m/s 692 mmHg 85%
    22:00 +3°C° 0.4 mm 1 m/s 692 mmHg 86%
    23:00 +3°C° 0.4 mm 1 m/s 693 mmHg 87%

    Demain, 21 Janvier, Lundi

    Heure Température Précipitation Vent Pression Humidité
    00:00 +3°C° 0.7 mm 1 m/s 693 mmHg 89%
    01:00 +2°C° 0.7 mm 1 m/s 694 mmHg 91%
    02:00 +2°C° 0.7 mm 1 m/s 694 mmHg 93%
    03:00 +2°C° 0.5 mm 1 m/s 694 mmHg 93%
    04:00 +2°C° 0.5 mm 1 m/s 695 mmHg 93%
    05:00 -1°C° 0.5 mm 2 m/s 695 mmHg 94%
    06:00 +1°C° 0.4 mm 1 m/s 696 mmHg 94%
    07:00 +1°C° 0.4 mm 1 m/s 696 mmHg 94%
    08:00 +1°C° 0.4 mm 1 m/s 697 mmHg 94%
    09:00 +1°C° 0.2 mm 1 m/s 697 mmHg 93%
    10:00 +1°C° 0.2 mm 1 m/s 697 mmHg 92%
    11:00 +1°C° 0.2 mm 1 m/s 697 mmHg 91%
    12:00 +2°C° 0 mm 1 m/s 696 mmHg 89%
    13:00 +2°C° 0 mm 1 m/s 696 mmHg 88%
    14:00 +3°C° 0 mm 1 m/s 696 mmHg 86%
    15:00 +2°C° 0 mm 1 m/s 696 mmHg 86%
    16:00 +2°C° 0 mm 1 m/s 696 mmHg 87%
    17:00 +2°C° 0 mm 1 m/s 696 mmHg 88%
    18:00 +1°C° 0 mm 1 m/s 696 mmHg 87%
    19:00 +1°C° 0 mm 1 m/s 697 mmHg 87%
    20:00 0°C° 0 mm 1 m/s 697 mmHg 86%
    21:00 0°C° 0 mm 1 m/s 697 mmHg 86%
    22:00 0°C° 0 mm 1 m/s 696 mmHg 85%
    23:00 0°C° 0 mm 1 m/s 696 mmHg 84%

    Après-demain, 22 Janvier, Mardi

    Heure Température Précipitation Vent Pression Humidité
    00:00 0°C° 0 mm 1 m/s 695 mmHg 83%
    01:00 0°C° 0 mm 1 m/s 695 mmHg 83%
    02:00 0°C° 0 mm 1 m/s 694 mmHg 82%
    03:00 0°C° 0 mm 1 m/s 694 mmHg 82%
    04:00 -1°C° 0 mm 1 m/s 693 mmHg 81%
    05:00 -1°C° 0 mm 1 m/s 693 mmHg 80%
    06:00 -1°C° 0 mm 1 m/s 693 mmHg 80%
    07:00 -1°C° 0 mm 1 m/s 693 mmHg 79%
    08:00 -1°C° 0 mm 1 m/s 693 mmHg 78%
    09:00 0°C° 0 mm 1 m/s 692 mmHg 76%
    10:00 +1°C° 0 mm 1 m/s 691 mmHg 74%
    11:00 +2°C° 0 mm 1 m/s 690 mmHg 71%
    12:00 +2°C° 0 mm 1 m/s 690 mmHg 69%
    13:00 +3°C° 0 mm 1 m/s 689 mmHg 67%
    14:00 +3°C° 0 mm 1 m/s 688 mmHg 66%
    15:00 +3°C° 0 mm 1 m/s 689 mmHg 67%
    16:00 +1°C° 0 mm 0 m/s 689 mmHg 69%
    17:00 +1°C° 0 mm 0 m/s 689 mmHg 71%
    18:00 +1°C° 0 mm 0 m/s 690 mmHg 71%
    19:00 0°C° 0 mm 0 m/s 691 mmHg 71%
    20:00 0°C° 0 mm 0 m/s 691 mmHg 70%
    21:00 0°C° 0 mm 0 m/s 691 mmHg 70%
    22:00 0°C° 0 mm 0 m/s 691 mmHg 70%
    23:00 0°C° 0 mm 0 m/s 691 mmHg 69%

    23 Janvier, Mercredi

    Heure Température Précipitation Vent Pression Humidité
    00:00 0°C° 0 mm 0 m/s 692 mmHg 69%
    01:00 0°C° 0 mm 0 m/s 692 mmHg 70%
    02:00 0°C° 0 mm 0 m/s 692 mmHg 70%
    03:00 0°C° 0 mm 0 m/s 692 mmHg 70%
    04:00 0°C° 0 mm 0 m/s 692 mmHg 71%
    05:00 0°C° 0 mm 0 m/s 692 mmHg 71%
    06:00 0°C° 0 mm 0 m/s 693 mmHg 72%
    07:00 0°C° 0 mm 0 m/s 693 mmHg 72%
    08:00 0°C° 0 mm 0 m/s 694 mmHg 72%
    09:00 +1°C° 0 mm 0 m/s 694 mmHg 69%
    10:00 +3°C° 0 mm 1 m/s 694 mmHg 67%
    11:00 +4°C° 0 mm 1 m/s 694 mmHg 64%
    12:00 +4°C° 0 mm 1 m/s 693 mmHg 63%
    13:00 +5°C° 0 mm 1 m/s 693 mmHg 62%
    14:00 +5°C° 0 mm 1 m/s 693 mmHg 62%
    15:00 +5°C° 0 mm 1 m/s 693 mmHg 65%
    16:00 +3°C° 0 mm 0 m/s 694 mmHg 68%
    17:00 +3°C° 0 mm 0 m/s 694 mmHg 71%
    18:00 +2°C° 0 mm 0 m/s 695 mmHg 72%
    19:00 +2°C° 0 mm 0 m/s 696 mmHg 73%
    20:00 +1°C° 0 mm 0 m/s 696 mmHg 74%
    21:00 +1°C° 0 mm 0 m/s 696 mmHg 75%
    22:00 +1°C° 0 mm 0 m/s 696 mmHg 75%
    23:00 +1°C° 0 mm 0 m/s 696 mmHg 76%

    24 Janvier, Jeudi

    Heure Température Précipitation Vent Pression Humidité
    00:00 +1°C° 0 mm 0 m/s 697 mmHg 76%
    01:00 +1°C° 0 mm 0 m/s 697 mmHg 76%
    02:00 +1°C° 0 mm 0 m/s 697 mmHg 76%
    03:00 +1°C° 0 mm 0 m/s 697 mmHg 76%
    04:00 0°C° 0 mm 0 m/s 697 mmHg 76%
    05:00 0°C° 0 mm 0 m/s 698 mmHg 76%
    06:00 +1°C° 0 mm 0 m/s 698 mmHg 75%
    07:00 +1°C° 0 mm 0 m/s 699 mmHg 74%
    08:00 +1°C° 0 mm 0 m/s 699 mmHg 72%
    09:00 +3°C° 0 mm 1 m/s 699 mmHg 67%
    10:00 +4°C° 0 mm 1 m/s 699 mmHg 62%
    11:00 +4°C° 0 mm 1 m/s 698 mmHg 57%
    12:00 +5°C° 0 mm 1 m/s 698 mmHg 55%
    13:00 +5°C° 0 mm 1 m/s 698 mmHg 53%
    14:00 +6°C° 0 mm 1 m/s 698 mmHg 50%
    15:00 +5°C° 0 mm 1 m/s 698 mmHg 53%
    16:00 +5°C° 0 mm 1 m/s 699 mmHg 55%
    17:00 +4°C° 0 mm 1 m/s 699 mmHg 57%
    18:00 +4°C° 0 mm 1 m/s 700 mmHg 58%
    19:00 +3°C° 0 mm 1 m/s 701 mmHg 58%
    20:00 +3°C° 0 mm 1 m/s 701 mmHg 59%
    21:00 +2°C° 0 mm 1 m/s 701 mmHg 58%
    22:00 +2°C° 0 mm 1 m/s 701 mmHg 57%
    23:00 +2°C° 0 mm 1 m/s 701 mmHg 56%

    25 Janvier, Vendredi

    Heure Température Précipitation Vent Pression Humidité
    00:00 +1°C° 0 mm 1 m/s 701 mmHg 55%
    01:00 +1°C° 0 mm 1 m/s 701 mmHg 53%
    02:00 +1°C° 0 mm 1 m/s 701 mmHg 52%
    03:00 +1°C° 0 mm 1 m/s 701 mmHg 51%
    04:00 +1°C° 0 mm 1 m/s 701 mmHg 50%
    05:00 0°C° 0 mm 1 m/s 701 mmHg 49%
    06:00 0°C° 0 mm 1 m/s 701 mmHg 48%
    07:00 0°C° 0 mm 1 m/s 701 mmHg 47%
    08:00 0°C° 0 mm 1 m/s 701 mmHg 46%
    09:00 +2°C° 0 mm 1 m/s 700 mmHg 42%
    10:00 +3°C° 0 mm 1 m/s 700 mmHg 39%
    11:00 +4°C° 0 mm 1 m/s 699 mmHg 35%
    12:00 +5°C° 0 mm 1 m/s 699 mmHg 35%
    13:00 +5°C° 0 mm 1 m/s 698 mmHg 35%
    14:00 +6°C° 0 mm 1 m/s 698 mmHg 34%
    15:00 +5°C° 0 mm 1 m/s 698 mmHg 37%
    16:00 +4°C° 0 mm 0 m/s 699 mmHg 40%
    17:00 +3°C° 0 mm 0 m/s 699 mmHg 44%
    18:00 +4°C° 0 mm 1 m/s 700 mmHg 45%
    19:00 +3°C° 0 mm 1 m/s 700 mmHg 46%
    20:00 +3°C° 0 mm 1 m/s 701 mmHg 47%
    21:00 +2°C° 0 mm 1 m/s 701 mmHg 47%
    22:00 +2°C° 0 mm 1 m/s 701 mmHg 48%
    23:00 +2°C° 0 mm 1 m/s 701 mmHg 49%
    Voir plus